User: anonymous   Login
Location: Unspecified
(0.0000°N, 0.0000°E)
Time: 22:29:51
(UTC+00:00)
Language:

APRIZESAT 1 (LATINSAT C) - Orbit

View from above orbital plane
View from above orbital plane
View from above satellite
View from above satellite

Ground track
Ground track

The orbit data is extracted from the following two-line orbital elements,

1 28372U 04025G   18174.59588779 +.00000011 +00000-0 +14484-4 0  9999
2 28372 098.3006 120.8178 0047215 035.0849 325.3439 14.49550342739325
Epoch (UTC): 23 June 2018 14:18:04
Eccentricity: 0.0047215
inclination: 98.3006°
perigee height: 693 km
apogee height: 760 km
right ascension of ascending node: 120.8178°
argument of perigee: 35.0849°
revolutions per day: 14.49550342
mean anomaly at epoch: 325.3439°
orbit number at epoch: 73932

The dashed part of the orbit path shows where the satellite is in the earth's shadow,  

DLR